User: anonymous   Login
Location: Unspecified
(0.0000°N, 0.0000°E)
Time: 10:47:15
(UTC+00:00)
Language:

DMSP 5D-3 F19 (USA 249) - Orbit

View from above orbital plane
View from above orbital plane
View from above satellite
View from above satellite

Ground track
Ground track

The orbit data is extracted from the following two-line orbital elements,

1 39630U 14015A   19294.94750074 -.00000004 +00000-0 +21002-4 0  9997
2 39630 098.7607 305.5555 0009480 298.7555 061.2665 14.13928868286484
Epoch (UTC): 21 October 2019 22:44:24
Eccentricity: 0.0009480
inclination: 98.7607°
perigee height: 839 km
apogee height: 853 km
right ascension of ascending node: 305.5555°
argument of perigee: 298.7555°
revolutions per day: 14.13928868
mean anomaly at epoch: 61.2665°
orbit number at epoch: 28648

The dashed part of the orbit path shows where the satellite is in the earth's shadow,  

DLR